Date String (YYYY-MM-DD hh:mm:ss) UTC,Instrument flags,Ambient pressure (hPa),Sample flow (lpm),Bypass flow (lpm),Sample temperature (°C),Ambient temperature (°C),ASC tube jacket temperature (°C),LED temperature (°C),Box temperature (°C),Sample RH (%),Span deviation,Mass concentration (μg/m³),Mass concentration (μg/m³),Mass concentration (μg/m³)
DateTimeUTC,F1_M11,P_M11,Q1_M11,Q2_M11,T1_M11,T2_M11,T3_M11,T4_M11,T5_M11,U1_M11,ZSPAN_M11,X2_M11,X0_M11,X1_M11
2023-05-12 23:00:00,,0831.5,5.00,0.00,28.6,27.2,00.0,36.9,30.2,20.6,0000.0,0000.30,0001.36,0000.21
2023-05-12 23:01:00,,0831.6,5.01,0.00,28.6,27.2,00.0,36.9,30.2,20.6,0000.0,0000.31,0001.36,0000.21
2023-05-12 23:02:00,,0831.6,5.00,0.00,28.6,27.2,00.0,36.9,30.2,20.3,0000.0,0000.30,0001.35,0000.22
2023-05-12 23:03:00,,0831.5,5.00,0.00,28.6,27.2,00.0,36.9,30.2,20.5,0000.0,0000.32,0001.44,0000.23
2023-05-12 23:04:00,,0831.5,5.00,0.00,28.6,27.2,00.0,37.0,30.2,20.4,0000.0,0000.35,0001.50,0000.24
2023-05-12 23:05:00,,0831.5,5.00,0.00,28.6,27.2,00.0,37.0,30.2,20.5,0000.0,0000.38,0001.22,0000.24
2023-05-12 23:06:00,,0831.5,5.00,0.00,28.6,27.2,00.0,37.0,30.2,20.4,0000.0,0000.42,0000.88,0000.25
2023-05-12 23:07:00,,0831.4,5.00,0.00,28.6,27.2,00.0,37.0,30.2,20.6,0000.0,0000.43,0000.93,0000.25
2023-05-12 23:08:00,,0831.5,4.99,0.00,28.6,27.2,00.0,37.0,30.2,20.4,0000.0,0000.44,0000.96,0000.26
2023-05-12 23:09:00,,0831.5,5.00,0.00,28.6,27.1,00.0,37.0,30.2,20.5,0000.0,0000.47,0001.02,0000.27
2023-05-12 23:10:00,,0831.5,5.00,0.00,28.6,27.1,00.0,37.0,30.2,20.8,0000.0,0000.52,0001.11,0000.28
2023-05-12 23:11:00,,0831.4,5.00,0.00,28.6,27.1,00.0,37.0,30.2,20.7,0000.0,0000.54,0001.15,0000.29
2023-05-12 23:12:00,,0831.5,5.00,0.00,28.6,27.1,00.0,37.0,30.2,20.2,0000.0,0000.56,0001.21,0000.29
2023-05-12 23:13:00,,0831.5,5.00,0.00,28.6,27.1,00.0,37.0,30.2,20.6,0000.0,0000.58,0001.25,0000.29
2023-05-12 23:14:00,,0831.5,5.00,0.00,28.6,27.1,00.0,37.0,30.2,21.2,0000.0,0000.60,0001.24,0000.30
2023-05-12 23:15:00,,0831.5,5.00,0.00,28.6,27.1,00.0,37.0,30.2,20.4,0000.0,0000.57,0001.15,0000.30
2023-05-12 23:16:00,,0831.5,5.00,0.00,28.6,27.1,00.0,37.0,30.2,20.6,0000.0,0000.55,0001.10,0000.30
2023-05-12 23:17:00,,0831.5,5.00,0.00,28.6,27.1,00.0,37.0,30.2,20.7,0000.0,0000.52,0001.05,0000.30
2023-05-12 23:18:00,,0831.5,5.01,0.00,28.6,27.1,00.0,37.0,30.2,20.6,0000.0,0000.52,0001.11,0000.30
2023-05-12 23:19:00,,0831.4,5.01,0.00,28.6,27.1,00.0,37.0,30.2,20.7,0000.0,0000.51,0001.08,0000.30
2023-05-12 23:20:00,,0831.5,4.99,0.00,28.6,27.1,00.0,37.0,30.2,20.1,0000.0,0000.51,0001.07,0000.30
2023-05-12 23:21:00,,0831.5,5.00,0.00,28.6,27.1,00.0,37.0,30.2,20.2,0000.0,0000.52,0001.10,0000.30
2023-05-12 23:22:00,,0831.5,5.00,0.00,28.6,27.1,00.0,37.0,30.2,20.2,0000.0,0000.51,0001.11,0000.29
2023-05-12 23:23:00,,0831.5,4.99,0.00,28.6,27.1,00.0,37.0,30.2,20.5,0000.0,0000.48,0001.05,0000.29
2023-05-12 23:24:00,,0831.5,4.99,0.00,28.6,27.1,00.0,37.0,30.2,20.5,0000.0,0000.51,0001.14,0000.29
2023-05-12 23:25:00,,0831.5,5.00,0.00,28.6,27.1,00.0,37.0,30.2,20.7,0000.0,0000.50,0001.19,0000.28
2023-05-12 23:26:00,,0831.5,5.01,0.00,28.6,27.1,00.0,37.0,30.2,20.7,0000.0,0000.51,0001.24,0000.28
2023-05-12 23:27:00,,0831.5,5.00,0.00,28.6,27.1,00.0,37.0,30.2,21.0,0000.0,0000.54,0001.36,0000.28
2023-05-12 23:28:00,,0831.5,5.01,0.00,28.6,27.1,00.0,37.0,30.2,20.6,0000.0,0000.56,0001.31,0000.28
2023-05-12 23:29:00,,0831.5,4.98,0.00,28.6,27.1,00.0,37.0,30.2,20.4,0000.0,0000.58,0001.31,0000.28
2023-05-12 23:30:00,,0831.6,5.00,0.00,28.6,27.1,00.0,37.0,30.2,20.5,0000.0,0000.58,0001.32,0000.28
2023-05-12 23:31:00,,0831.6,5.00,0.00,28.6,27.0,00.0,37.0,30.2,20.1,0000.0,0000.60,0001.37,0000.28
2023-05-12 23:32:00,,0831.6,5.01,0.00,28.6,27.0,00.0,37.0,30.2,20.1,0000.0,0000.55,0001.25,0000.27
2023-05-12 23:33:00,,0831.6,5.00,0.00,28.6,27.0,00.0,37.0,30.2,20.5,0000.0,0000.55,0001.25,0000.27
2023-05-12 23:34:00,,0831.6,5.00,0.00,28.6,27.1,00.0,37.0,30.2,20.7,0000.0,0000.54,0001.23,0000.27
2023-05-12 23:35:00,,0831.5,5.00,0.00,28.6,27.1,00.0,37.0,30.2,20.4,0000.0,0000.51,0001.13,0000.26
2023-05-12 23:36:00,,0831.5,4.99,0.00,28.6,27.1,00.0,37.0,30.2,20.3,0000.0,0000.47,0000.97,0000.26
2023-05-12 23:37:00,,0831.5,4.99,0.00,28.6,27.1,00.0,37.0,30.2,20.3,0000.0,0000.46,0000.92,0000.27
2023-05-12 23:38:00,,0831.5,5.00,0.00,28.6,27.1,00.0,37.0,30.2,19.9,0000.0,0000.43,0000.81,0000.27
2023-05-12 23:39:00,,0831.5,5.00,0.00,28.6,27.0,00.0,37.0,30.2,20.0,0000.0,0000.41,0000.70,0000.27
2023-05-12 23:40:00,,0831.5,5.00,0.00,28.6,27.0,00.0,37.0,30.2,19.6,0000.0,0000.39,0000.66,0000.27
2023-05-12 23:41:00,,0831.6,5.00,0.00,28.6,27.0,00.0,37.0,30.2,19.6,0000.0,0000.39,0000.68,0000.26
2023-05-12 23:42:00,,0831.6,5.00,0.00,28.6,27.0,00.0,37.0,30.2,19.9,0000.0,0000.36,0000.79,0000.26
2023-05-12 23:43:00,,0831.5,5.01,0.00,28.6,26.9,00.0,37.0,30.2,19.9,0000.0,0000.35,0000.98,0000.26
2023-05-12 23:44:00,,0831.5,5.00,0.00,28.6,26.9,00.0,37.0,30.2,20.1,0000.0,0000.35,0000.98,0000.27
2023-05-12 23:45:00,,0831.5,5.01,0.00,28.6,26.9,00.0,37.0,30.1,20.4,0000.0,0000.36,0000.99,0000.27
2023-05-12 23:46:00,,0831.6,4.99,0.00,28.6,26.9,00.0,37.0,30.2,20.4,0000.0,0000.38,0001.01,0000.28
2023-05-12 23:47:00,,0831.7,5.00,0.00,28.6,26.9,00.0,37.0,30.1,20.1,0000.0,0000.40,0001.05,0000.28
2023-05-12 23:48:00,,0831.8,5.02,0.00,28.6,26.9,00.0,37.0,30.1,19.9,0000.0,0000.40,0001.05,0000.28
2023-05-12 23:49:00,,0831.8,5.00,0.00,28.6,26.9,00.0,37.0,30.1,19.8,0000.0,0000.39,0001.03,0000.28
2023-05-12 23:50:00,,0831.8,5.01,0.00,28.6,26.9,00.0,37.0,30.1,19.6,0000.0,0000.37,0000.97,0000.28
2023-05-12 23:51:00,,0831.9,5.01,0.00,28.6,26.9,00.0,37.0,30.1,19.9,0000.0,0000.37,0000.98,0000.28
2023-05-12 23:52:00,,0831.9,5.00,0.00,28.6,26.9,00.0,37.0,30.1,20.3,0000.0,0000.36,0000.93,0000.28
2023-05-12 23:53:00,,0831.9,5.00,0.00,28.6,26.9,00.0,37.0,30.1,20.4,0000.0,0000.37,0000.97,0000.28
2023-05-12 23:54:00,,0831.8,4.98,0.00,28.6,26.9,00.0,37.0,30.1,20.6,0000.0,0000.38,0001.34,0000.28
2023-05-12 23:55:00,,0831.8,5.00,0.00,28.6,26.9,00.0,37.0,30.1,20.8,0000.0,0000.37,0001.31,0000.28
2023-05-12 23:56:00,,0831.8,5.01,0.00,28.6,26.9,00.0,37.0,30.1,20.4,0000.0,0000.37,0001.42,0000.28
2023-05-12 23:57:00,,0831.9,5.00,0.00,28.6,26.9,00.0,37.0,30.1,20.9,0000.0,0000.36,0001.41,0000.27
2023-05-12 23:58:00,,0832.0,5.01,0.00,28.5,26.9,00.0,37.0,30.1,20.6,0000.0,0000.36,0001.44,0000.26
2023-05-12 23:59:00,,0832.1,5.00,0.00,28.5,26.9,00.0,37.0,30.1,20.8,0000.0,0000.38,0001.50,0000.25
